Regional Weather Roundup
Issued by NWS New Orleans/Baton Rouge, LA

Home | Current Version | Previous Version | Text Only | Print | Product List | Glossary On
Versions: 1 2 3 4 5 6 7 8 9 10 11 12 13 14 15 16 17 18 19 20 21 22 23 24 25 26 27 28 29 30 31 32 33 34 35 36 37 38 39 40 41 42 43 44 45 46 47 48 49 50
811
ASUS44 KLIX 270601
RWRLIX
NEW ORLEANS REGIONAL WEATHER ROUNDUP
NATIONAL WEATHER SERVICE NEW ORLEANS LA
1200 AM CST FRI FEB 27 2015

NOTE: "FAIR" INDICATES FEW OR NO CLOUDS BELOW 12,000 FEET WITH NO
      SIGNIFICANT WEATHER AND/OR OBSTRUCTIONS TO VISIBILITY.
      SKY/WX - SKY CONDITION AND SIGNIFICANT WEATHER.
      TMP - AIR TEMPERATURE.     DP    - DEWPOINT TEMPERATURE.
      RH  - RELATIVE HUMIDITY.   PRES  - PRESSURE.
      HI  - HEAT INDEX.          WCI   - WIND CHILL INDEX.

*  THESE STATIONS ARE NOT NWS OR FAA STATIONS AND ARE NOT UNDER
   NWS QUALITY CONTROL.

LAZ038-040-048-061>063-065>067-069-270700-
SOUTHEAST LOUISIANA

CITY           SKY/WX    TMP DP  RH WIND       PRES   REMARKS
N.O. AUDUBON     N/A     42  36  79 MISG        N/A
6HR MIN TEMP:  42; 6HR MAX TEMP:  49;

N.O. INTL ARPT PTCLDY    41  34  76 N16       30.27R
6HR MIN TEMP:  41; 6HR MAX TEMP:  48;

N.O. LAKEFRONT PTCLDY    43  34  70 N22       30.28R
6HR MIN TEMP:  43; 6HR MAX TEMP:  50;

SLIDELL        PTCLDY    37  31  78 N13       30.27R WCI  29
6HR MIN TEMP:  37; 6HR MAX TEMP:  46;

BATON ROUGE    MOCLDY    37  31  78 N8G18     30.31R WCI  31
6HR MIN TEMP:  36; 6HR MAX TEMP:  48;

BOOTHVILLE     CLOUDY    48  36  63 N12G18    30.23S
6HR MIN TEMP:  47; 6HR MAX TEMP:  49;

BELLE CHASSE   MOCLDY    43  32  65 N10G18    30.25R
6HR MIN TEMP:  43; 6HR MAX TEMP:  48;

BOGALUSA*        N/A     37  31  80 N13G20    30.31S WCI  29
6HR MIN TEMP:  36; 6HR MAX TEMP:  47;

GALLIANO*      CLOUDY    46  36  66 N9        30.25R
6HR MIN TEMP:  46; 6HR MAX TEMP:  48;

NEW ROADS*     NOT AVBL
GONZALES*      NOT AVBL
HAMMOND*       NOT AVBL
HOUMA*         MOCLDY    41  35  79 N13       30.26R
6HR MIN TEMP:  41; 6HR MAX TEMP:  47;

PORT FOURCHON* NOT AVBL

$$

MSZ070-080>082-270700-
SOUTHERN MISSISSIPPI

CITY           SKY/WX    TMP DP  RH WIND       PRES   REMARKS
MCCOMB         CLOUDY    34  28  79 N8        30.31R WCI  27
6HR MIN TEMP:  34; 6HR MAX TEMP:  44;

GULFPORT       PTCLDY    39  32  76 N10       30.26R WCI  32
6HR MIN TEMP:  39; 6HR MAX TEMP:  46;

BILOXI         NOT AVBL
PASCAGOULA     MOCLDY    40  31  70 N16G23    30.25R WCI  31
6HR MIN TEMP:  40; 6HR MAX TEMP:  46;


$$

COASTAL OBSERVATIONS
LAKE AND NEARSHORE STATIONS

STATION/POSITION TIME  TEMP    WIND        PRES    WAVE
                       AIR SEA DIR/SP/G            HT/PER
                 (UTC) (F)     (DEG/KT/KT) (MB)    (FT/S)
PASCAGOULA       0500   42      10/ 13/ 20 1023.7
WAVELAND YACHT   0500   40 49   10/ 15/ 18 1024.2
GRAND ISLE       0500   47 52   50/ 10/ 15 1023.9
SOUTHWEST PASS   0500   52 49   30/ 15/ 17 1023.5
NEW CANAL        0500           10/ 17/ 22   N/A
SHELL BEACH      0500           20/ 20/ 25   N/A

OFFSHORE STATIONS

STATION/POSITION TIME  TEMP    WIND        PRES    WAVE
                       AIR SEA DIR/SP/G            HT/PER
                 (UTC) (F)     (DEG/KT/KT) (MB)    (FT/S)
64 S DAUPHIN ISL 0545   50 63   30/ 19/ 25 1023.0    4/ 5

$$




USA.gov is the U.S. government's official web portal to all federal, state and local government web resources and services.